This demonstration page uses our WeatherBlox Daily Observations layout. Learn more.

39.29038, -76.61219

Hourly Observations for April 12, 2016

Temp ( °F °C ) Dew Point ( °F °C ) Humidity (%) Winds ( mph kmh ) Pressure ( in mb ) Visibility ( mi km ) Precip ( " mm )
12:54 am 00:54 undefined 68 20 49 9.4 51 51 undefined N/A 29.94 1014 N/A 0 0
1:54 am 01:54 undefined 68 20 49 9.4 51 51 undefined N/A 29.93 1013 N/A 0 0
2:54 am 02:54 undefined 67 19.4 50 10 55 55 undefined N/A 29.91 1013 N/A 0 0
3:54 am 03:54 undefined 67 19.4 50 10 55 55 undefined N/A 29.9 1013 N/A 0 0
4:54 am 04:54 undefined 65 18.3 52 11.1 63 63 undefined N/A 29.91 1013 N/A 0 0
5:54 am 05:54 undefined 64 17.8 52 11.1 65 65 undefined N/A 29.93 1014 N/A 0 0
6:54 am 06:54 undefined 62 16.7 55 12.8 78 78 undefined N/A 29.94 1014 N/A 0 0
7:54 am 07:54 undefined 61 16.1 55 12.8 81 81 undefined N/A 29.97 1015 N/A 0 0
8:54 am 08:54 undefined 60 15.6 56 13.3 86 86 undefined N/A 29.99 1016 N/A 0.03 0.762
9:54 am 09:54 undefined 59 15 53 11.7 81 81 undefined N/A 30.02 1017 N/A 0.03 0.762
10:54 am 10:54 undefined 59 15 48 8.9 67 67 undefined N/A 30.07 1018 N/A 0 0
11:54 am 11:54 undefined 58 14.4 38 3.3 48 48 undefined N/A 30.09 1019 N/A 0 0
12:54 pm 12:54 undefined 61 16.1 35 1.7 38 38 undefined N/A 30.1 1019 N/A 0 0
1:54 pm 13:54 undefined 62 16.7 32 0 32 32 undefined N/A 30.11 1020 N/A 0 0
2:54 pm 14:54 undefined 63 17.2 26 -3.3 25 25 undefined N/A 30.11 1020 N/A 0 0
3:54 pm 15:54 undefined 63 17.2 22 -5.6 21 21 undefined N/A 30.11 1020 N/A 0 0
4:54 pm 16:54 undefined 63 17.2 21 -6.1 20 20 undefined N/A 30.11 1020 N/A 0 0
5:54 pm 17:54 undefined 60 15.6 23 -5 24 24 undefined N/A 30.12 1020 N/A 0 0
6:54 pm 18:54 undefined 59 15 22 -5.6 24 24 undefined N/A 30.16 1021 N/A 0 0
7:54 pm 19:54 undefined 57 13.9 23 -5 27 27 undefined N/A 30.19 1023 N/A 0 0
8:54 pm 20:54 undefined 55 12.8 23 -5 29 29 undefined N/A 30.23 1024 N/A 0 0
9:54 pm 21:54 undefined 54 12.2 23 -5 30 30 undefined N/A 30.26 1025 N/A 0 0
10:54 pm 22:54 undefined 53 11.7 22 -5.6 30 30 undefined N/A 30.28 1025 N/A 0 0
11:54 pm 23:54 undefined 51 10.6 23 -5 33 33 undefined N/A 30.29 1026 N/A 0 0

Powered by AerisWeather